{"data":{"norad_id":64044,"epoch":"2026-05-25T02:14:49.917120Z","epoch_age_seconds":70032,"freshness":"FRESH","line1":"1 64044U 25102Y   26145.09363330  .00000749  00000+0  70504-4 0  9992","line2":"2 64044  70.0012 281.9356 0002311 270.3749  89.7145 14.98336277 57335","mean_motion":14.98336277,"eccentricity":0.0002311,"inclination_deg":70.0012,"raan_deg":281.9356,"arg_perigee_deg":270.3749,"mean_anomaly_deg":89.7145,"bstar":7.0504e-5,"rev_number":5733,"period_min":96.10659650337,"perigee_km":570.43029481627,"apogee_km":573.64266499868,"semimajor_km":6950.1734799075,"source":"CELESTRAK","updated_at":"2026-05-25T13:38:20.255597Z"}}